Location: Rounton
(54.4000°N, 1.3500°W)
Time: 07:16:25
(UTC+00:00)

Tiros 1 despin weight - Pass Details

Date: 07 December 2021
Orbit: 592 x 641 km, 48.2° (Epoch: 19 January)

Event Time Altitude Azimuth Distance (km) Brightness Sun altitude
Rises 16:08:48 0° 268° (W) 2,830 ? -4.0°
Reaches altitude 10° 16:11:19 10° 257° (WSW) 1,924 ? -4.3°
Maximum altitude 16:15:05 28° 198° (SSW) 1,120 ? -4.7°
Drops below altitude 10° 16:18:50 10° 139° (SE) 1,921 ? -5.2°
Sets 16:21:21 0° 128° (SE) 2,824 ? -5.5°
